Weather History for Lafayette, IN

Change the Weather History Date:

Friday, August 16, 2013

  Actual Average Record
Temperature  
Mean Temperature 68 °F 74 °F  
Max Temperature 77 °F 84 °F 97 °F (1988)
Min Temperature 58 °F 63 °F 46 °F (1979)
Degree Days  
Heating Degree Days 0 0  
Month to date heating degree days 11 0  
Since 1 June heating degree days 38 23  
Since 1 July heating degree days 20 1  
Cooling Degree Days 3 9  
Month to date cooling degree days 80 144  
Year to date cooling degree days 583 735  
Since 1 June cooling degree days 482 658  
Growing Degree Days 17 (Base 50)    
Moisture  
Dew Point 55 °F    
Average Humidity 69    
Maximum Humidity 100    
Minimum Humidity 38    
Precipitation  
Precipitation 0.01 in 0.12 in 1.43 in (1977)
Month to date precipitation 1.74 1.73  
Year to date precipitation 27.28 23.82  
Sea Level Pressure  
Sea Level Pressure 30.15 in    
Wind  
Wind Speed 2 mph (NE)    
Max Wind Speed 10 mph    
Max Gust Speed 14 mph    
Visibility 10 miles    
Events Rain    
T = Trace of Precipitation, MM = Missing Value Source: NWS Daily Summary

Daily Weather History Graph

Daily Weather History Graph

Search for Another Location

Airport:

Trip Planner

Search our weather history database for the weather conditions in past years. The results will help you decide how hot, cold, wet, or windy it might be!

Date:

Astronomy

Aug. 16, 2013 Rise Set
Actual Time 6:59 AM EDT 8:43 PM EDT
Civil Twilight 6:30 AM EDT 9:12 PM EDT
Nautical Twilight 5:55 AM EDT 9:47 PM EDT
Astronomical Twilight 5:17 AM EDT 10:25 PM EDT
Moon 5:02 PM EDT 2:01 AM EDT
Length of Visible Light 14h 41m
Length of Day
13h 43m
Waxing Gibbous, 74% of the Moon is Illuminated
Aug 16
Waxing Gibbous
Aug 20
Full
Aug 28
Last Quarter
Sep 5
New
Sep 12
First Quarter

Hourly Weather History & Observations

Time (EDT) Temp. Dew Point Humidity Pressure Visibility Wind Dir Wind Speed Gust Speed Precip Events Conditions
1:54 AM 57.9 °F 55.9 °F 93% 30.14 in 10.0 mi Calm Calm - N/A   Clear
2:54 AM 57.9 °F 55.9 °F 93% 30.13 in 10.0 mi Calm Calm - N/A   Clear
3:54 AM 57.9 °F 55.9 °F 93% 30.13 in 10.0 mi Calm Calm - N/A   Clear
4:54 AM 57.9 °F 57.0 °F 97% 30.13 in 10.0 mi Calm Calm - N/A   Overcast
5:54 AM 59.0 °F 57.0 °F 93% 30.13 in 10.0 mi Calm Calm - 0.01 in Rain Light Rain
6:54 AM 57.9 °F 57.9 °F 100% 30.14 in 10.0 mi Calm Calm - 0.00 in   Clear
7:54 AM 57.9 °F 57.9 °F 100% 30.16 in 10.0 mi Calm Calm - N/A   Clear
8:54 AM 61.0 °F 57.9 °F 90% 30.17 in 10.0 mi Calm Calm - N/A   Clear
9:54 AM 66.0 °F 59.0 °F 78% 30.17 in 10.0 mi Calm Calm - N/A   Clear
10:54 AM 69.1 °F 54.0 °F 58% 30.17 in 10.0 mi Calm Calm - N/A   Clear
11:54 AM 72.0 °F 54.0 °F 53% 30.17 in 10.0 mi NNE 5.8 mph - N/A   Clear
12:54 PM 73.9 °F 54.0 °F 50% 30.17 in 10.0 mi Calm Calm - N/A   Partly Cloudy
1:54 PM 75.0 °F 53.1 °F 46% 30.16 in 10.0 mi NE 10.4 mph - N/A   Scattered Clouds
2:54 PM 77.0 °F 50.0 °F 39% 30.16 in 10.0 mi North 5.8 mph - N/A   Mostly Cloudy
3:54 PM 73.9 °F 46.9 °F 38% 30.15 in 10.0 mi NNE 9.2 mph - N/A   Scattered Clouds
4:54 PM 73.9 °F 51.1 °F 45% 30.14 in 10.0 mi NNE 8.1 mph - N/A   Clear
5:54 PM 73.9 °F 54.0 °F 50% 30.14 in 10.0 mi ENE 5.8 mph - N/A   Partly Cloudy
6:54 PM 72.0 °F 53.1 °F 51% 30.15 in 10.0 mi East 6.9 mph - N/A   Clear
7:54 PM 70.0 °F 55.9 °F 61% 30.15 in 10.0 mi ESE 4.6 mph - N/A   Clear
8:54 PM 66.9 °F 57.9 °F 73% 30.15 in 10.0 mi Calm Calm - N/A   Clear
9:54 PM 64.0 °F 57.9 °F 80% 30.17 in 10.0 mi Calm Calm - N/A   Clear
10:54 PM 62.1 °F 57.9 °F 86% 30.18 in 10.0 mi Calm Calm - N/A   Clear
11:54 PM 61.0 °F 57.0 °F 87% 30.18 in 10.0 mi Calm Calm - N/A   Clear